Theta_e
286 285 285 285 284 284 283 282 282 282 281 281 281 280 280 280 281 281 281 281 281 280 280 279 279 279 280 278 278 279 279 278 278 277 277 278 277 277 278 277 276 277
285 285 285 284 284 283 282 283 282 281 281 280 281 281 281 281 281 281 281 280 280 279 279 279 278 278 277 277 277 278 277 277 277 279 277 276 277 276 276 276 276 276
284 284 284 283 283 282 281 281 281 280 280 280 280 281 281 281 280 280 280 279 279 278 278 278 277 277 277 276 276 277 277 275 276 275 276 276 276 276 276 276 276 276
283 283 283 282 282 281 281 281 280 280 280 280 280 281 281 281 280 280 279 279 278 278 277 277 276 276 276 276 276 276 276 275 275 275 275 275 276 275 275 276 276 275
283 282 282 282 281 281 281 280 280 280 280 280 280 280 280 279 279 279 278 278 277 277 277 276 275 275 275 275 275 275 275 275 274 274 274 274 274 276 276 275 274 274
282 282 282 282 281 281 280 280 280 280 280 280 280 280 279 279 278 278 277 277 277 276 276 275 275 275 274 274 274 274 274 275 274 273 273 273 273 274 276 275 274 273
281 281 281 281 281 280 280 279 279 280 280 279 279 279 278 278 277 277 277 276 276 276 275 275 274 274 274 273 273 273 273 274 273 273 272 272 273 272 273 273 273 273
281 281 281 281 280 280 279 279 279 279 279 279 278 278 278 278 277 277 277 276 276 275 275 274 274 273 273 272 272 272 273 275 273 272 272 272 272 272 272 274 272 272
281 281 280 280 280 279 279 279 279 278 278 278 278 277 277 277 277 276 276 276 275 275 274 273 273 272 272 272 272 271 271 271 272 271 272 271 272 272 272 272 272 272
280 280 280 279 279 279 279 278 278 278 278 277 277 277 277 276 276 276 276 275 275 274 273 273 273 272 272 272 272 271 271 271 271 271 271 271 272 272 272 272 272 271
280 280 279 279 279 278 278 278 277 277 277 276 276 276 276 276 275 275 275 275 275 273 273 272 272 272 272 271 271 271 271 271 271 271 272 272 272 272 275 272 272 272
280 279 279 279 278 278 277 277 277 277 276 276 277 276 275 275 275 275 276 275 274 273 273 272 272 271 271 271 270 271 271 271 271 271 272 272 272 272 272 272 272 272
279 279 279 278 278 277 277 276 276 276 277 276 277 276 275 275 276 276 275 274 273 272 272 272 271 271 270 270 270 270 270 271 271 271 272 272 272 272 272 272 272 272
280 279 278 278 277 277 276 276 276 276 277 277 276 276 275 275 275 275 274 274 273 272 272 271 270 270 270 269 270 270 271 271 271 271 271 272 272 272 272 272 272 272
279 279 278 277 277 277 276 276 276 276 276 277 276 276 276 275 275 275 273 273 272 272 271 271 271 271 271 270 270 271 271 271 271 270 270 270 271 271 271 271 271 271
279 278 278 278 277 277 277 276 276 276 276 276 276 276 275 275 274 273 272 272 272 272 271 271 271 271 273 276 276 272 271 272 271 270 270 270 270 270 270 270 271 271
279 279 278 278 278 278 277 276 276 275 275 276 275 275 274 273 273 273 273 272 272 271 270 270 270 271 276 278 278 278 273 271 270 270 270 270 270 269 269 269 269 270
279 279 279 278 278 278 277 277 276 276 275 275 274 274 273 273 273 273 272 272 271 270 269 269 270 274 277 279 280 279 277 272 270 269 269 271 271 270 270 270 269 270
280 279 279 278 278 277 277 276 276 275 275 274 274 274 273 272 272 272 271 271 270 269 269 269 269 276 278 279 280 280 280 276 273 272 272 271 272 271 271 271 270 270
280 279 279 278 278 277 276 276 275 275 275 274 274 273 273 273 272 271 271 270 270 269 269 268 268 274 278 280 280 280 280 278 274 274 273 272 272 272 272 272 271 269
279 279 279 278 278 277 276 275 275 274 274 274 273 273 272 272 271 271 270 269 268 268 268 268 268 275 278 280 280 280 279 278 274 274 273 272 273 273 273 273 271 270
280 280 279 278 277 277 276 276 275 274 274 273 273 273 272 272 271 270 270 268 268 267 267 267 267 276 277 279 280 280 279 276 274 273 272 272 272 272 272 271 270 269
280 280 279 278 277 276 276 276 275 274 274 273 272 273 272 271 270 269 268 268 267 267 267 267 266 273 277 278 279 280 278 274 273 272 272 271 271 270 270 269 269 269
280 279 279 278 277 276 275 276 275 275 274 273 272 272 271 270 269 267 267 267 267 266 267 266 266 270 276 278 279 280 278 272 272 271 270 270 269 270 269 269 269 272
279 279 279 278 277 276 276 276 276 275 274 272 272 271 270 268 267 267 266 265 266 266 269 267 265 268 275 277 279 280 278 272 271 269 268 268 268 269 269 269 269 271
279 279 279 278 278 277 276 277 276 273 272 271 270 269 268 267 267 267 266 266 265 265 265 267 265 264 267 277 278 279 279 273 271 269 268 268 268 268 267 267 268 269
Wind_Speed
8 7 8 8 7 7 9 9 7 8 7 6 7 6 7 6 5 5 5 6 6 7 7 6 5 5 5 4 4 5 5 5 4 3 4 5 5 5 5 4 4 4
8 8 7 7 6 6 6 7 8 8 8 7 6 7 6 6 4 5 6 7 7 7 6 6 5 4 4 4 4 5 5 4 4 2 4 4 4 5 4 4 4 3
8 8 9 9 9 9 8 7 7 7 7 7 6 6 6 4 6 5 6 6 7 7 6 5 4 4 3 3 3 4 5 4 4 3 4 4 3 4 3 4 4 4
8 9 9 8 8 10 8 8 7 6 6 7 6 5 5 5 5 6 6 7 7 6 5 4 4 3 4 3 4 5 4 3 3 3 4 3 3 3 3 4 3 4
10 9 7 8 7 8 8 9 9 8 7 7 6 6 6 6 6 7 7 7 6 5 5 4 3 3 3 3 4 5 4 4 3 3 4 4 2 3 2 4 3 3
7 7 8 9 9 10 9 9 8 8 8 7 7 6 6 6 6 7 7 7 6 6 5 4 4 3 3 3 3 3 4 5 3 4 4 3 3 3 3 4 4 3
9 8 9 8 8 8 9 8 7 7 7 7 6 6 7 7 7 8 7 7 6 6 5 4 4 3 3 3 4 4 3 4 3 4 4 3 3 3 3 3 3 3
9 7 8 8 9 8 8 8 8 8 7 7 7 6 6 7 8 7 7 7 6 6 5 4 3 3 3 3 3 3 3 3 3 3 3 3 3 3 2 2 2 2
9 9 8 9 9 8 8 8 7 7 6 8 7 6 5 6 8 8 7 7 6 5 5 4 3 3 3 3 3 3 3 3 3 3 3 3 2 1 1 1 1 1
10 9 10 9 10 8 9 8 8 7 7 7 7 6 7 5 6 7 7 7 6 5 4 4 4 3 3 3 3 3 3 3 3 3 3 2 2 1 1 1 0 0
11 10 11 10 10 8 9 8 8 8 7 7 7 7 7 7 6 5 7 6 6 5 4 4 4 3 3 3 3 3 3 3 2 2 2 1 1 1 1 1 0 0
12 11 11 11 11 9 10 9 9 8 8 7 8 9 7 7 8 7 7 7 5 5 4 4 4 4 4 3 3 3 3 3 3 3 2 2 1 0 0 0 0 1
12 12 11 11 10 10 9 8 9 9 9 9 8 9 9 8 7 7 6 6 5 5 5 5 4 4 4 4 3 3 3 3 2 3 2 1 1 0 0 0 0 1
12 10 10 10 9 9 9 9 8 8 8 7 8 8 8 8 8 7 5 5 5 5 4 4 4 4 4 3 4 4 3 3 3 3 2 1 0 0 0 0 1 1
10 9 8 9 9 9 9 9 9 8 8 8 8 7 7 7 7 7 7 6 4 5 4 4 5 5 4 4 4 4 4 4 3 3 2 2 0 0 1 1 1 1
10 9 10 10 11 11 11 10 9 9 9 8 8 7 7 7 8 7 7 7 7 5 4 4 5 4 5 9 8 5 4 4 4 3 2 2 2 2 1 1 1 2
11 11 11 12 12 11 9 10 9 8 7 7 7 7 8 8 8 9 8 7 7 6 6 5 5 4 9 12 12 11 6 4 4 3 2 3 3 2 3 2 3 3
12 12 12 12 11 11 10 10 8 8 8 8 8 8 8 7 8 8 8 7 6 5 6 6 5 7 12 13 12 12 9 5 4 3 3 3 3 3 3 3 3 3
12 13 12 11 11 11 10 9 10 9 9 9 10 8 7 8 9 9 8 7 7 7 7 6 5 9 13 14 13 13 13 9 4 4 4 3 3 3 3 3 3 4
12 12 12 12 10 10 9 10 10 11 10 8 7 7 9 8 7 8 8 8 8 8 7 5 6 9 14 14 14 14 13 10 5 5 5 4 4 3 3 4 4 4
12 11 12 10 10 10 10 10 11 9 9 9 9 10 11 11 11 10 9 7 7 6 6 7 6 11 14 14 14 14 13 10 5 5 5 4 5 6 6 6 5 5
12 12 10 10 10 10 11 11 11 11 11 9 8 7 6 5 5 5 8 8 7 7 6 8 6 13 15 15 15 15 15 6 5 6 6 5 5 6 5 4 4 5
12 12 12 12 12 12 13 13 12 11 9 7 9 9 10 9 10 9 8 8 8 8 9 8 6 11 15 15 15 16 11 5 6 5 5 6 6 6 5 5 5 5
13 13 13 12 12 14 14 12 10 7 9 9 11 11 11 11 8 7 6 8 9 10 10 9 8 10 15 15 16 17 13 7 6 5 6 6 6 6 6 6 6 12
11 12 12 13 13 14 12 12 12 13 9 8 8 7 9 6 7 8 7 7 8 9 9 10 8 9 15 16 17 17 13 7 7 5 6 7 6 7 6 6 6 8
11 12 13 13 14 12 11 12 9 7 8 10 8 7 7 7 7 7 9 9 8 8 9 10 9 8 9 17 17 18 19 9 7 7 9 9 7 7 6 6 7 7
Wind_Direction
143 145 146 144 143 143 143 140 142 135 134 135 131 140 132 139 135 119 110 98 90 88 83 80 76 76 75 78 90 89 84 83 73 69 75 92 83 79 65 58 51 64
145 141 136 130 128 128 131 136 140 137 137 136 135 132 133 130 130 115 108 96 87 87 86 84 83 85 83 88 98 96 89 83 74 53 76 83 105 88 80 77 67 53
141 141 144 147 146 142 137 132 129 133 133 139 133 129 130 125 119 111 107 103 97 94 92 92 88 88 91 96 98 102 108 96 83 74 79 87 100 90 95 80 66 62
144 147 146 141 140 139 137 132 130 126 129 130 138 138 129 130 123 122 113 104 104 103 103 102 108 98 91 93 98 95 107 102 117 95 84 72 76 98 87 86 70 53
147 144 142 138 135 134 137 138 140 142 140 138 131 134 134 136 134 125 117 111 112 113 108 112 104 97 95 90 106 111 109 102 82 83 83 77 53 79 82 85 78 57
137 142 144 145 146 144 144 144 146 144 142 142 147 142 147 149 139 128 122 121 119 118 116 110 104 101 99 110 105 111 118 101 99 91 81 83 55 62 81 82 78 61
148 148 147 144 141 143 139 143 144 144 148 149 140 154 160 152 137 129 125 124 124 120 120 124 123 120 113 107 108 109 117 117 101 94 89 74 84 52 55 77 75 63
149 147 146 145 143 144 143 147 151 151 153 152 153 162 161 147 133 127 124 124 122 122 124 133 137 130 123 109 118 117 103 112 101 96 99 86 92 76 48 72 82 71
150 153 151 150 147 149 150 153 153 154 159 155 156 156 151 142 135 128 128 124 121 126 132 141 138 130 137 126 138 131 124 105 117 118 117 107 93 109 100 99 68 71
157 155 154 154 153 156 156 158 156 159 159 154 157 151 144 136 127 129 125 127 127 134 145 144 142 144 149 158 154 142 135 131 122 111 121 135 143 163 149 123 145 105
162 161 159 160 157 159 162 161 162 159 160 159 153 149 145 136 128 128 128 130 140 153 159 157 156 164 153 159 159 149 144 144 135 134 126 136 162 167 163 140 137 180
167 166 167 164 162 163 166 167 164 163 162 166 161 151 147 143 142 146 145 145 150 161 160 164 168 168 171 165 156 145 149 150 152 147 143 136 131 142 136 154 158 249
173 172 167 166 166 166 165 167 169 168 166 166 168 156 151 149 148 144 144 148 160 157 163 165 171 168 171 173 164 164 163 159 139 135 124 127 124 128 92 1 265 239
177 170 167 167 164 164 169 171 170 170 168 164 158 157 153 151 152 150 147 149 162 163 167 163 168 173 178 176 173 170 161 154 152 147 141 128 115 61 28 274 267 261
171 168 163 161 163 166 171 174 175 172 166 165 166 158 152 148 142 143 148 156 157 166 170 172 178 188 183 176 174 177 168 160 147 148 148 158 159 241 262 232 274 273
171 168 168 167 168 174 176 176 175 172 170 168 166 158 149 147 146 151 157 165 168 173 177 184 191 191 196 195 182 169 164 161 152 158 163 171 191 216 255 251 247 261
172 176 171 175 177 175 176 173 173 173 172 169 162 158 157 155 156 163 169 169 172 175 187 196 196 190 205 209 201 188 168 167 169 182 175 187 198 204 217 238 264 253
179 174 176 179 176 181 176 177 172 171 175 173 166 164 166 159 167 174 169 169 168 177 192 199 198 200 209 211 206 197 177 172 174 178 189 197 200 205 212 215 233 247
180 179 181 181 184 179 176 173 175 177 177 173 179 175 158 171 181 169 178 174 173 185 198 198 194 207 212 212 209 206 198 178 177 184 193 200 206 209 212 222 222 230
182 182 185 186 180 176 176 179 181 188 183 179 166 159 171 177 176 179 176 182 186 190 195 195 197 208 213 213 210 207 206 198 167 195 204 205 212 214 222 226 219 214
186 187 189 183 179 179 181 187 189 185 182 181 176 178 180 186 184 184 189 184 187 186 188 200 205 206 214 216 211 209 208 201 174 201 204 212 218 222 227 225 221 226
187 189 187 182 181 182 186 192 193 190 187 182 178 185 189 176 192 187 182 186 186 182 187 209 210 206 212 217 213 209 210 196 180 200 209 213 211 213 214 211 215 221
188 187 189 187 186 186 194 196 192 193 191 179 181 189 181 190 193 191 187 181 182 187 195 210 206 209 211 215 214 210 207 183 194 199 207 211 218 213 214 215 214 219
190 189 190 190 188 195 198 199 195 195 193 184 188 186 192 200 188 186 187 186 186 192 197 200 207 209 211 215 214 212 204 188 194 193 212 215 217 219 214 216 213 224
190 191 193 192 195 200 197 196 196 197 191 183 200 194 199 180 183 187 192 195 198 196 192 199 208 209 213 215 215 214 209 177 192 197 214 221 213 218 217 208 220 227
192 193 196 195 200 200 198 203 193 172 182 189 197 195 190 186 188 193 194 202 194 190 201 204 204 211 214 215 215 215 212 190 183 195 217 216 210 210 211 224 213 219